Location: ?ern� Novina
(50.6762°N, 14.8696°E)
Time: 12:42:28
(UTC+00:00)

SJ 16-02 - Pass Details

Date: 03 March 2021
Orbit: 605 x 617 km, 75.0° (Epoch: 17 April)

Event Time Altitude Azimuth Distance (km) Brightness Sun altitude
Rises 17:55:21 0° 346° (NNW) 2,884 5.0 -11.9°
Reaches altitude 10° 17:58:12 10° 5° (N) 1,977 4.0 -12.3°
Maximum altitude 18:01:19 19° 50° (NE) 1,492 2.9 -12.8°
Enters shadow 18:02:28 17° 70° (ENE) 1,564 2.9 -13.0°
